FW9205 Weather Reports


Display with metric or nautical units.
time (UTC)temp
F
wind
direction
speed
MPH
gust
MPH
rain 1hr
in
rain 24hr
in
rain mn
in
humidity
%
barometer
mb
20260507140453 60 165 25.0 38.0 0.00 0.00 0.00 81 1004.0
20260507135439 60 200 23.0 38.0 0.00 0.00 0.00 81 1004.0
20260507134454 60 176 28.0 44.0 0.00 0.00 0.00 81 1004.0
20260507132944 59 186 29.0 45.0 0.00 0.00 0.00 81 1004.1
20260507131948 60 169 24.0 47.0 0.00 0.00 0.00 80 1004.6
20260507130944 60 157 32.0 46.0 0.00 0.00 0.00 78 1004.4
20260507125956 60 177 28.0 45.0 0.00 0.00 0.00 78 1004.1
20260507124932 59 170 26.0 47.0 0.00 0.00 0.00 79 1004.1
20260507123944 59 173 27.0 45.0 0.00 0.00 0.00 79 1004.0
20260507122937 60 177 27.0 43.0 0.00 0.00 0.00 78 1004.9
20260507121953 60 181 33.0 42.0 0.00 0.00 0.00 77 1004.6
20260507120952 60 201 33.0 44.0 0.00 0.00 0.00 77 1004.7
20260507115956 60 183 29.0 44.0 0.00 0.00 0.00 77 1004.9
20260507114948 60 196 35.0 46.0 0.00 0.00 0.00 77 1004.4
20260507113949 60 181 29.0 41.0 0.00 0.00 0.00 78 1005.0
20260507112951 61 185 29.0 42.0 0.00 0.00 0.00 77 1004.8
20260507111954 61 161 26.0 47.0 0.00 0.00 0.00 78 1004.9
20260507110956 60 163 25.0 39.0 0.00 0.00 0.00 78 1005.3
20260507105948 59 152 24.0 46.0 0.00 0.00 0.00 79 1005.7
20260507104959 58 176 25.0 36.0 0.00 0.00 0.00 80 1005.7
20260507103952 58 162 27.0 38.0 0.00 0.00 0.00 81 1005.5
20260507103420 58 193 25.0 38.0 0.00 0.00 0.00 81 1005.8
20260507102438 58 146 24.0 35.0 0.00 0.00 0.00 81 1006.1
20260507101934 58 188 24.0 38.0 0.00 0.00 0.00 81 1006.0
20260507100952 57 192 26.0 39.0 0.00 0.00 0.00 81 1006.3
20260507095948 57 177 24.0 32.0 0.00 0.00 0.00 81 1006.4
20260507094955 57 179 20.0 33.0 0.00 0.00 0.00 80 1006.4
20260507093926 57 163 22.0 34.0 0.00 0.00 0.00 79 1006.5
20260507093425 57 164 19.0 30.0 0.00 0.00 0.00 79 1006.4
20260507092925 57 150 18.0 31.0 0.00 0.00 0.00 79 1006.7
20260507092419 57 161 18.0 31.0 0.00 0.00 0.00 78 1006.9
20260507091917 57 166 15.0 31.0 0.00 0.00 0.00 78 1007.2
20260507090943 57 182 18.0 31.0 0.00 0.00 0.00 76 1007.4
20260507085952 56 153 14.0 28.0 0.00 0.00 0.00 76 1007.3
20260507084941 56 153 18.0 27.0 0.00 0.00 0.00 77 1007.4
20260507083920 56 174 18.0 30.0 0.00 0.00 0.00 76 1007.2
20260507082920 56 178 17.0 28.0 0.00 0.00 0.00 77 1007.9
20260507081929 56 161 17.0 26.0 0.00 0.00 0.00 78 1008.1
20260507080932 56 154 14.0 27.0 0.00 0.00 0.00 78 1008.7
20260507080427 56 181 17.0 27.0 0.00 0.00 0.00 78 1009.2
20260507075924 56 144 18.0 25.0 0.00 0.00 0.00 78 1008.8
20260507074939 55 162 16.0 26.0 0.00 0.00 0.00 78 1008.9
20260507073930 55 167 17.0 29.0 0.00 0.00 0.00 78 1009.0
20260507072919 55 135 17.0 26.0 0.00 0.00 0.00 78 1009.2
20260507072003 56 177 18.0 27.0 0.00 0.00 0.00 76 1009.3
20260507071416 56 178 18.0 25.0 0.00 0.00 0.00 76 1009.4
20260507070433 56 159 14.0 26.0 0.00 0.00 0.00 76 1009.1
20260507065901 56 174 20.0 26.0 0.00 0.00 0.00 76 1009.2
20260507064933 56 157 16.0 25.0 0.00 0.00 0.00 75 1009.5
20260507064409 56 160 16.0 30.0 0.00 0.00 0.00 75 1009.9
20260507063415 56 163 19.0 29.0 0.00 0.00 0.00 74 1010.4
20260507062903 56 158 16.0 29.0 0.00 0.00 0.00 74 1010.6
20260507061920 56 175 19.0 29.0 0.00 0.00 0.00 72 1010.6
20260507060927 56 175 20.0 30.0 0.00 0.00 0.00 72 1010.9
20260507055859 57 188 19.0 26.0 0.00 0.00 0.00 69 1011.0
20260507055116 57 179 17.0 26.0 0.00 0.00 0.00 71 1011.3
20260507053912 56 191 16.0 24.0 0.00 0.00 0.00 71 1011.5
20260507052937 57 185 15.0 26.0 0.00 0.00 0.00 72 1011.0
20260507052359 57 173 15.0 27.0 0.00 0.00 0.00 72 1011.0
20260507051404 57 179 19.0 28.0 0.00 0.00 0.00 71 1011.1
20260507050410 57 155 18.0 28.0 0.00 0.00 0.00 72 1011.0
20260507045907 57 173 18.0 28.0 0.00 0.00 0.00 73 1011.1
20260507044935 57 163 18.0 27.0 0.00 0.00 0.00 74 1011.4
20260507043919 57 159 17.0 28.0 0.00 0.00 0.00 74 1011.8
20260507042934 57 161 15.0 23.0 0.00 0.00 0.00 74 1012.2
20260507041934 58 173 18.0 25.0 0.00 0.00 0.00 73 1012.2
20260507040932 59 184 18.0 26.0 0.00 0.00 0.00 72 1012.8
20260507040407 59 185 15.0 27.0 0.00 0.00 0.00 72 1012.9
20260507035415 59 167 17.0 28.0 0.00 0.00 0.00 72 1012.9
20260507034913 59 188 19.0 24.0 0.00 0.00 0.00 72 1012.9
20260507034410 59 167 17.0 24.0 0.00 0.00 0.00 72 1013.1
20260507033416 59 188 18.0 30.0 0.00 0.00 0.00 73 1013.0
20260507032426 60 173 17.0 27.0 0.00 0.00 0.00 72 1013.3
20260507030921 59 150 19.0 30.0 0.00 0.00 0.00 73 1013.7
20260507030123 59 175 20.0 30.0 0.00 0.00 0.00 72 1014.1
20260507025428 59 154 19.0 26.0 0.00 0.00 0.00 71 1014.1
20260507024910 60 174 19.0 26.0 0.00 0.00 0.00 71 1014.4
20260507024409 60 197 19.0 26.0 0.00 0.00 0.00 71 1014.5
20260507023430 59 177 16.0 26.0 0.00 0.00 0.00 71 1014.7
20260507022441 60 166 15.0 23.0 0.00 0.00 0.00 71 1014.9
20260507021926 59 202 15.0 22.0 0.00 0.00 0.00 71 1015.0
20260507020936 59 192 17.0 26.0 0.00 0.00 0.00 71 1015.1
20260507015919 59 207 13.0 25.0 0.00 0.00 0.00 72 1015.2
20260507014929 59 176 16.0 26.0 0.00 0.00 0.00 73 1015.1
20260507013919 59 182 17.0 21.0 0.00 0.00 0.00 72 1015.4
20260507013414 59 165 15.0 24.0 0.00 0.00 0.00 73 1015.5
20260507012444 60 199 15.0 28.0 0.00 0.00 0.00 72 1015.5
20260507011930 60 184 20.0 29.0 0.00 0.00 0.00 72 1015.5
20260507010954 60 236 18.0 28.0 0.00 0.00 0.00 72 1015.6
20260507010426 59 212 16.0 26.0 0.00 0.00 0.00 73 1015.5
20260507005444 60 198 15.0 21.0 0.00 0.00 0.00 73 1015.5
20260507004932 59 223 14.0 26.0 0.00 0.00 0.00 73 1015.4
20260507004146 60 196 17.0 27.0 0.00 0.00 0.00 73 1015.1
20260507002959 60 185 17.0 33.0 0.00 0.00 0.00 73 1015.2
20260507002432 60 202 19.0 33.0 0.00 0.00 0.00 72 1015.1
20260507001440 60 199 17.0 26.0 0.00 0.00 0.00 73 1015.1
20260506235953 60 212 19.0 31.0 0.00 0.00 0.00 72 1014.8
20260506235424 60 202 19.0 33.0 0.00 0.00 0.00 73 1014.9
20260506234622 60 195 23.0 30.0 0.00 0.00 0.00 72 1014.7
20260506233922 61 174 21.0 29.0 0.00 0.00 0.00 72 1014.9
20260506232935 61 188 19.0 25.0 0.00 0.00 0.00 73 1015.1
20260506231939 61 170 18.0 27.0 0.00 0.00 0.00 72 1014.8
20260506230958 62 207 23.0 34.0 0.00 0.00 0.00 72 1014.7
20260506230418 61 196 24.0 37.0 0.00 0.00 0.00 72 1014.7
20260506225430 61 252 25.0 34.0 0.00 0.00 0.00 73 1014.4
20260506224924 62 196 24.0 35.0 0.00 0.00 0.00 72 1014.6
20260506223937 62 196 23.0 36.0 0.00 0.00 0.00 72 1014.4
20260506222928 62 195 25.0 35.0 0.00 0.00 0.00 72 1014.2
20260506221929 63 191 24.0 33.0 0.00 0.00 0.00 71 1014.5
20260506220948 63 185 24.0 35.0 0.00 0.00 0.00 71 1014.2
20260506215949 63 193 22.0 37.0 0.00 0.00 0.00 70 1014.4
20260506214438 64 177 21.0 36.0 0.00 0.00 0.00 68 1014.2
20260506213450 64 174 22.0 32.0 0.00 0.00 0.00 68 1014.4
20260506212454 64 221 19.0 31.0 0.00 0.00 0.00 68 1014.6
20260506211449 64 212 22.0 32.0 0.00 0.00 0.00 67 1014.6
20260506210441 64 203 18.0 26.0 0.00 0.00 0.00 66 1014.6
20260506205442 64 207 14.0 24.0 0.00 0.00 0.00 66 1014.7
20260506204444 65 177 18.0 31.0 0.00 0.00 0.00 64 1014.6
20260506203913 65 221 22.0 31.0 0.00 0.00 0.00 62 1014.7
20260506202948 66 217 21.0 32.0 0.00 0.00 0.00 64 1014.3
20260506201951 66 193 20.0 32.0 0.00 0.00 0.00 63 1014.4
20260506200948 66 198 20.0 29.0 0.00 0.00 0.00 63 1014.5
20260506195453 64 227 16.0 22.0 0.00 0.00 0.00 67 1014.8
20260506194443 65 212 18.0 28.0 0.00 0.00 0.00 65 1014.8
20260506193444 65 229 19.0 38.0 0.00 0.00 0.00 64 1015.0
20260506192444 65 230 28.0 43.0 0.00 0.00 0.00 62 1014.6
20260506191458 66 248 27.0 36.0 0.00 0.00 0.00 60 1014.6
20260506190449 66 217 22.0 37.0 0.00 0.00 0.00 63 1014.6
20260506185440 67 207 29.0 44.0 0.00 0.00 0.00 61 1014.4